Oakland, CA

12:17 AM PDT on July 27, 2017 (GMT -0700)
Metro Oakland International

Weather History for KOAK - March, 2014

Change the Weather History Date:

Saturday, March 1, 2014

  Actual Average Record
Temperature  
Mean Temperature 62 °F 53 °F  
Max Temperature 69 °F 61 °F 74 °F (1954)
Min Temperature 54 °F 46 °F 33 °F (1955)
Degree Days  
Heating Degree Days 3 12  
Month to date heating degree days 3 12  
Since 1 July heating degree days 1824 2034  
Cooling Degree Days 0 0  
Month to date cooling degree days 0 0  
Year to date cooling degree days 0 0  
Growing Degree Days 11 (Base 50)    
Moisture  
Dew Point 48 °F    
Average Humidity 63    
Maximum Humidity 78    
Minimum Humidity 48    
Precipitation  
Precipitation 0.03 in 0.14 in 0.58 in (1974)
Month to date precipitation 0.03 0.14  
Year to date precipitation 3.73 8.08  
Since 1 July precipitation 5.80  
Sea Level Pressure  
Sea Level Pressure 29.63 in    
Wind  
Wind Speed 10 mph (ESE)    
Max Wind Speed 17 mph    
Max Gust Speed 25 mph    
Visibility 10 miles    
Events Rain    
T = Trace of Precipitation, MM = Missing Value Source: NWS Daily Summary

Daily Weather History Graph

Daily Weather History Graph

Search for Another Location

Airport or City:

Trip Planner

Search our weather history database for the weather conditions in past years. The results will help you decide how hot, cold, wet, or windy it might be!

Date:

Astronomy

Mar. 01, 2014 Rise Set
Actual Time 6:40 AM PST 6:02 PM PST
Civil Twilight 6:13 AM PST 6:29 PM PST
Nautical Twilight 5:43 AM PST 6:59 PM PST
Astronomical Twilight 5:13 AM PST 7:29 PM PST
Moon 6:38 AM PST (3/1) 6:54 PM PST (3/1)
Length of Visible Light 12h 15m
Length of Day
11h 22m
New Moon, 0% of the Moon is Illuminated
Mar 1
New Moon
Mar 8
First Quarter
Mar 16
Full
Mar 23
Last Quarter
Mar 30
New

Hourly Weather History & Observations

Time (PST) Temp. Dew Point Humidity Pressure Visibility Wind Dir Wind Speed Gust Speed Precip Events Conditions
12:53 AM 55.9 °F 46.0 °F 69% 29.48 in 10.0 mi East 11.5 mph - N/A   Overcast
1:53 AM 55.0 °F 46.9 °F 74% 29.50 in 10.0 mi East 13.8 mph - 0.01 in Rain Light Rain
2:53 AM 54.0 °F 46.0 °F 75% 29.48 in 10.0 mi East 9.2 mph - 0.01 in   Mostly Cloudy
3:53 AM 55.9 °F 46.0 °F 69% 29.47 in 10.0 mi East 11.5 mph - 0.00 in Rain Light Rain
4:53 AM 55.9 °F 46.0 °F 69% 29.50 in 10.0 mi East 11.5 mph - 0.00 in Rain Light Rain
5:53 AM 55.9 °F 45.0 °F 67% 29.50 in 10.0 mi East 12.7 mph - 0.00 in   Overcast
6:53 AM 57.0 °F 44.1 °F 62% 29.51 in 10.0 mi East 16.1 mph - 0.00 in   Mostly Cloudy
7:53 AM 57.0 °F 44.1 °F 62% 29.56 in 10.0 mi East 12.7 mph - N/A   Mostly Cloudy
8:53 AM 59.0 °F 45.0 °F 60% 29.58 in 10.0 mi East 13.8 mph - N/A   Mostly Cloudy
9:53 AM 62.1 °F 45.0 °F 53% 29.61 in 10.0 mi East 16.1 mph 20.7 mph N/A   Mostly Cloudy
10:53 AM 63.0 °F 50.0 °F 63% 29.62 in 10.0 mi South 9.2 mph - N/A   Mostly Cloudy
11:53 AM 66.9 °F 46.9 °F 49% 29.63 in 10.0 mi ESE 10.4 mph - N/A   Mostly Cloudy
12:53 PM 68.0 °F 48.0 °F 49% 29.63 in 10.0 mi SSE 16.1 mph - N/A   Mostly Cloudy
1:53 PM 64.0 °F 51.1 °F 63% 29.65 in 10.0 mi South 15.0 mph 25.3 mph N/A   Mostly Cloudy
2:37 PM 64.4 °F 50.0 °F 59% 29.65 in 10.0 mi South 15.0 mph 23.0 mph 0.00 in   Overcast
2:53 PM 64.9 °F 48.9 °F 56% 29.65 in 10.0 mi Variable 3.5 mph - 0.00 in   Overcast
3:53 PM 62.1 °F 51.1 °F 67% 29.67 in 10.0 mi WSW 10.4 mph - 0.00 in Rain Light Rain
4:53 PM 63.0 °F 53.1 °F 70% 29.67 in 10.0 mi NNE 5.8 mph - 0.01 in   Mostly Cloudy
5:53 PM 61.0 °F 54.0 °F 78% 29.70 in 10.0 mi Calm Calm - N/A   Mostly Cloudy
6:53 PM 62.1 °F 52.0 °F 70% 29.75 in 10.0 mi West 4.6 mph - N/A   Overcast
7:53 PM 59.0 °F 52.0 °F 78% 29.77 in 10.0 mi NNW 6.9 mph - N/A   Overcast
8:53 PM 59.0 °F 52.0 °F 78% 29.79 in 10.0 mi ENE 5.8 mph - N/A   Overcast
9:53 PM 60.1 °F 48.9 °F 67% 29.81 in 10.0 mi SE 10.4 mph - N/A   Overcast
10:53 PM 57.0 °F 48.0 °F 72% 29.82 in 10.0 mi ENE 4.6 mph - N/A   Mostly Cloudy
11:53 PM 57.0 °F 48.0 °F 72% 29.81 in 10.0 mi SE 6.9 mph - N/A   Mostly Cloudy